Time,TemperatureF,DewpointF,PressureIn,WindDirection,WindDirectionDegrees,WindSpeedMPH,WindSpeedGustMPH,Humidity,HourlyPrecipIn,Conditions,Clouds,dailyrainin,SoftwareType,DateUTC
2013-07-04 00:01:00,66.2,57.7,29.99,East,80,0.0,0.0,74,0.00,,---,0.00,VWS V14.01,2013-07-04 04:01:00,
2013-07-04 00:02:00,66.2,58.0,29.99,East,80,2.0,2.0,75,0.00,,---,0.00,VWS V14.01,2013-07-04 04:02:00,
2013-07-04 00:07:00,66.1,57.6,29.99,SE,129,1.0,1.0,74,0.00,,---,0.00,VWS V14.01,2013-07-04 04:07:00,
2013-07-04 00:12:00,66.1,58.0,29.99,SSE,168,2.0,2.0,75,0.00,,---,0.00,VWS V14.01,2013-07-04 04:12:00,
2013-07-04 00:17:00,66.1,58.0,29.99,South,173,2.0,3.0,75,0.00,,---,0.00,VWS V14.01,2013-07-04 04:17:00,
2013-07-04 00:22:00,65.9,58.1,29.99,South,176,2.0,2.0,76,0.00,,---,0.00,VWS V14.01,2013-07-04 04:22:00,
2013-07-04 00:27:00,65.8,58.0,29.99,South,169,3.0,4.0,76,0.00,,---,0.00,VWS V14.01,2013-07-04 04:27:00,
2013-07-04 00:32:00,65.7,57.9,29.99,SSE,165,0.0,0.0,76,0.00,,---,0.00,VWS V14.01,2013-07-04 04:32:00,
2013-07-04 00:37:00,65.7,58.3,29.99,SSE,165,0.0,2.0,77,0.00,,---,0.00,VWS V14.01,2013-07-04 04:37:00,
2013-07-04 00:42:00,65.5,58.5,29.99,South,170,2.0,4.0,78,0.00,,---,0.00,VWS V14.01,2013-07-04 04:42:00,
2013-07-04 00:47:00,65.3,59.0,30.00,SSW,200,4.0,5.0,80,0.00,,---,0.00,VWS V14.01,2013-07-04 04:47:00,
2013-07-04 00:52:00,64.8,59.2,30.00,SW,227,3.0,4.0,82,0.01,,---,0.01,VWS V14.01,2013-07-04 04:52:00,
2013-07-04 00:57:00,64.4,59.1,29.99,South,180,2.0,3.0,83,0.01,,---,0.01,VWS V14.01,2013-07-04 04:57:00,
2013-07-04 01:02:00,64.1,59.2,30.00,South,190,2.0,3.0,84,0.02,,---,0.02,VWS V14.01,2013-07-04 05:02:00,
2013-07-04 01:07:00,64.0,59.4,29.99,SSE,163,0.0,3.0,85,0.03,,---,0.03,VWS V14.01,2013-07-04 05:07:00,
2013-07-04 01:12:00,63.7,59.4,29.99,SSE,163,0.0,0.0,86,0.03,,---,0.03,VWS V14.01,2013-07-04 05:12:00,
2013-07-04 01:17:00,63.5,59.6,29.99,SSE,163,0.0,0.0,87,0.03,,---,0.03,VWS V14.01,2013-07-04 05:17:00,
2013-07-04 01:22:00,63.2,59.3,29.98,SSE,147,0.0,2.0,87,0.03,,---,0.03,VWS V14.01,2013-07-04 05:22:00,
2013-07-04 01:27:00,63.0,59.1,29.98,SE,145,2.0,3.0,87,0.03,,---,0.03,VWS V14.01,2013-07-04 05:27:00,
2013-07-04 01:32:00,62.9,59.3,29.99,SSE,155,0.0,4.0,88,0.03,,---,0.03,VWS V14.01,2013-07-04 05:32:00,
2013-07-04 01:37:00,62.9,59.3,29.99,SSE,164,3.0,3.0,88,0.03,,---,0.03,VWS V14.01,2013-07-04 05:37:00,
2013-07-04 01:42:00,63.0,59.7,29.99,SSW,192,1.0,6.0,89,0.03,,---,0.03,VWS V14.01,2013-07-04 05:42:00,
2013-07-04 01:47:00,63.2,59.9,29.99,South,176,3.0,4.0,89,0.03,,---,0.03,VWS V14.01,2013-07-04 05:47:00,
2013-07-04 01:52:00,63.2,59.6,29.99,South,180,3.0,5.0,88,0.02,,---,0.03,VWS V14.01,2013-07-04 05:52:00,
2013-07-04 01:57:00,63.1,59.5,29.99,South,189,3.0,4.0,88,0.02,,---,0.03,VWS V14.01,2013-07-04 05:57:00,
2013-07-04 02:02:00,63.2,59.9,29.99,SSW,192,2.0,2.0,89,0.02,,---,0.03,VWS V14.01,2013-07-04 06:02:00,
2013-07-04 02:07:00,63.2,59.9,29.98,South,184,2.0,4.0,89,0.00,,---,0.03,VWS V14.01,2013-07-04 06:07:00,
2013-07-04 02:12:00,63.2,59.9,29.98,South,178,1.0,5.0,89,0.00,,---,0.03,VWS V14.01,2013-07-04 06:12:00,
2013-07-04 02:17:00,63.1,59.8,29.98,South,175,2.0,2.0,89,0.00,,---,0.03,VWS V14.01,2013-07-04 06:17:00,
2013-07-04 02:22:00,63.1,59.8,29.98,South,171,1.0,3.0,89,0.00,,---,0.03,VWS V14.01,2013-07-04 06:22:00,
2013-07-04 02:27:00,63.0,59.7,29.97,South,172,0.0,3.0,89,0.00,,---,0.03,VWS V14.01,2013-07-04 06:27:00,
2013-07-04 02:32:00,63.0,60.0,29.97,South,173,3.0,5.0,90,0.00,,---,0.03,VWS V14.01,2013-07-04 06:32:00,
2013-07-04 02:37:00,63.1,60.1,29.97,South,174,3.0,4.0,90,0.00,,---,0.03,VWS V14.01,2013-07-04 06:37:00,
2013-07-04 02:42:00,63.3,60.3,29.98,South,176,4.0,5.0,90,0.00,,---,0.03,VWS V14.01,2013-07-04 06:42:00,
2013-07-04 02:47:00,63.4,60.4,29.97,South,182,3.0,6.0,90,0.00,,---,0.03,VWS V14.01,2013-07-04 06:47:00,
2013-07-04 02:53:00,63.4,60.4,29.97,South,178,3.0,6.0,90,0.00,,---,0.03,VWS V14.01,2013-07-04 06:53:00,
2013-07-04 02:58:00,63.5,60.8,29.97,South,173,3.0,4.0,91,0.00,,---,0.03,VWS V14.01,2013-07-04 06:58:00,
2013-07-04 03:03:00,63.4,60.7,29.97,South,176,2.0,4.0,91,0.00,,---,0.03,VWS V14.01,2013-07-04 07:03:00,
2013-07-04 03:08:00,63.3,60.9,29.97,South,171,0.0,3.0,92,0.00,,---,0.03,VWS V14.01,2013-07-04 07:08:00,
2013-07-04 03:13:00,63.3,60.6,29.97,South,173,1.0,3.0,91,0.00,,---,0.03,VWS V14.01,2013-07-04 07:13:00,
2013-07-04 03:18:00,63.3,60.6,29.97,South,173,2.0,4.0,91,0.00,,---,0.03,VWS V14.01,2013-07-04 07:18:00,
2013-07-04 03:23:00,63.3,60.6,29.97,South,178,0.0,4.0,91,0.00,,---,0.03,VWS V14.01,2013-07-04 07:23:00,
2013-07-04 03:28:00,63.2,60.5,29.98,South,170,3.0,3.0,91,0.00,,---,0.03,VWS V14.01,2013-07-04 07:28:00,
2013-07-04 03:33:00,63.1,60.4,29.97,South,172,1.0,2.0,91,0.00,,---,0.03,VWS V14.01,2013-07-04 07:33:00,
2013-07-04 03:38:00,63.0,60.3,29.97,South,175,0.0,3.0,91,0.00,,---,0.03,VWS V14.01,2013-07-04 07:38:00,
2013-07-04 03:43:00,62.9,60.5,29.97,South,176,0.0,2.0,92,0.00,,---,0.03,VWS V14.01,2013-07-04 07:43:00,
2013-07-04 03:48:00,62.8,60.1,29.97,South,176,2.0,4.0,91,0.00,,---,0.03,VWS V14.01,2013-07-04 07:48:00,
2013-07-04 03:53:00,62.6,60.2,29.97,South,175,2.0,3.0,92,0.00,,---,0.03,VWS V14.01,2013-07-04 07:53:00,
2013-07-04 03:58:00,62.4,60.0,29.98,South,175,3.0,4.0,92,0.00,,---,0.03,VWS V14.01,2013-07-04 07:58:00,
2013-07-04 04:03:00,62.2,59.8,29.97,South,177,3.0,4.0,92,0.00,,---,0.03,VWS V14.01,2013-07-04 08:03:00,
2013-07-04 04:08:00,62.2,59.8,29.97,South,177,2.0,3.0,92,0.00,,---,0.03,VWS V14.01,2013-07-04 08:08:00,
2013-07-04 04:13:00,62.2,59.8,29.97,South,176,3.0,3.0,92,0.00,,---,0.03,VWS V14.01,2013-07-04 08:13:00,
2013-07-04 04:18:00,62.3,60.0,29.97,South,176,3.0,4.0,92,0.00,,---,0.03,VWS V14.01,2013-07-04 08:18:00,
2013-07-04 04:23:00,62.3,60.0,29.97,South,176,2.0,3.0,92,0.00,,---,0.03,VWS V14.01,2013-07-04 08:23:00,
2013-07-04 04:28:00,62.1,60.1,29.97,South,176,0.0,3.0,93,0.00,,---,0.03,VWS V14.01,2013-07-04 08:28:00,
2013-07-04 04:33:00,62.1,60.1,29.97,South,176,0.0,2.0,93,0.00,,---,0.03,VWS V14.01,2013-07-04 08:33:00,
2013-07-04 04:38:00,62.2,60.2,29.97,South,176,0.0,1.0,93,0.00,,---,0.03,VWS V14.01,2013-07-04 08:38:00,
2013-07-04 04:43:00,62.3,60.2,29.97,South,176,0.0,0.0,93,0.00,,---,0.03,VWS V14.01,2013-07-04 08:43:00,
2013-07-04 04:48:00,62.3,60.2,29.97,South,176,0.0,0.0,93,0.00,,---,0.03,VWS V14.01,2013-07-04 08:48:00,
2013-07-04 04:53:00,62.3,60.2,29.97,South,176,0.0,2.0,93,0.00,,---,0.03,VWS V14.01,2013-07-04 08:53:00,
2013-07-04 04:58:00,62.3,60.2,29.97,South,176,1.0,2.0,93,0.00,,---,0.03,VWS V14.01,2013-07-04 08:58:00,
2013-07-04 05:03:00,62.3,60.2,29.97,South,176,0.0,2.0,93,0.00,,---,0.03,VWS V14.01,2013-07-04 09:03:00,
2013-07-04 05:08:00,62.5,60.5,29.97,South,176,0.0,1.0,93,0.00,,---,0.03,VWS V14.01,2013-07-04 09:08:00,
2013-07-04 05:13:00,62.5,60.5,29.97,South,176,0.0,2.0,93,0.00,,---,0.03,VWS V14.01,2013-07-04 09:13:00,
2013-07-04 05:18:00,62.6,60.5,29.97,South,176,0.0,0.0,93,0.00,,---,0.03,VWS V14.01,2013-07-04 09:18:00,
2013-07-04 05:23:00,62.5,60.5,29.97,South,176,0.0,0.0,93,0.00,,---,0.03,VWS V14.01,2013-07-04 09:23:00,
2013-07-04 05:28:00,62.4,60.3,29.98,South,176,0.0,1.0,93,0.00,,---,0.03,VWS V14.01,2013-07-04 09:28:00,
2013-07-04 05:33:00,62.4,60.3,29.98,South,176,0.0,0.0,93,0.00,,---,0.03,VWS V14.01,2013-07-04 09:33:00,
2013-07-04 05:38:00,62.3,60.6,29.98,South,176,0.0,0.0,94,0.00,,---,0.03,VWS V14.01,2013-07-04 09:38:00,
2013-07-04 05:43:00,62.2,60.5,29.98,South,176,0.0,0.0,94,0.00,,---,0.03,VWS V14.01,2013-07-04 09:43:00,
2013-07-04 05:49:00,62.0,60.3,29.98,South,176,0.0,0.0,94,0.00,,---,0.03,VWS V14.01,2013-07-04 09:49:00,
2013-07-04 05:54:00,61.9,60.2,29.98,South,176,0.0,1.0,94,0.00,,---,0.03,VWS V14.01,2013-07-04 09:54:00,
2013-07-04 05:59:00,61.9,60.2,29.98,South,176,0.0,1.0,94,0.00,,---,0.03,VWS V14.01,2013-07-04 09:59:00,
2013-07-04 06:04:00,62.0,60.3,29.99,South,176,0.0,0.0,94,0.00,,---,0.03,VWS V14.01,2013-07-04 10:04:00,
2013-07-04 06:09:00,61.8,60.1,29.99,South,176,0.0,1.0,94,0.00,,---,0.03,VWS V14.01,2013-07-04 10:09:00,
2013-07-04 06:14:00,62.0,60.3,29.99,South,176,4.0,4.0,94,0.00,,---,0.03,VWS V14.01,2013-07-04 10:14:00,
2013-07-04 06:19:00,61.7,60.0,29.99,West,264,2.0,5.0,94,0.00,,---,0.03,VWS V14.01,2013-07-04 10:19:00,
2013-07-04 06:24:00,61.3,59.6,29.99,West,265,1.0,4.0,94,0.00,,---,0.03,VWS V14.01,2013-07-04 10:24:00,
2013-07-04 06:29:00,61.1,59.4,29.99,West,265,0.0,2.0,94,0.00,,---,0.03,VWS V14.01,2013-07-04 10:29:00,
2013-07-04 06:34:00,60.9,59.2,29.99,West,265,3.0,3.0,94,0.00,,---,0.03,VWS V14.01,2013-07-04 10:34:00,
2013-07-04 06:39:00,60.7,59.0,30.00,West,264,1.0,3.0,94,0.00,,---,0.03,VWS V14.01,2013-07-04 10:39:00,
2013-07-04 06:44:00,60.6,58.9,30.00,West,265,2.0,4.0,94,0.00,,---,0.03,VWS V14.01,2013-07-04 10:44:00,
2013-07-04 06:49:00,60.7,59.0,30.00,West,265,1.0,2.0,94,0.00,,---,0.03,VWS V14.01,2013-07-04 10:49:00,
2013-07-04 06:54:00,60.7,59.0,30.00,West,265,1.0,2.0,94,0.00,,---,0.03,VWS V14.01,2013-07-04 10:54:00,
2013-07-04 06:59:00,60.8,59.1,30.00,West,264,0.0,0.0,94,0.00,,---,0.03,VWS V14.01,2013-07-04 10:59:00,
2013-07-04 07:04:00,60.9,59.2,30.00,West,265,1.0,2.0,94,0.00,,---,0.03,VWS V14.01,2013-07-04 11:04:00,
2013-07-04 07:09:00,60.9,59.2,30.00,West,265,1.0,3.0,94,0.00,,---,0.03,VWS V14.01,2013-07-04 11:09:00,
2013-07-04 07:14:00,60.9,59.2,30.00,West,265,3.0,5.0,94,0.00,,---,0.03,VWS V14.01,2013-07-04 11:14:00,
2013-07-04 07:19:00,61.0,59.3,30.01,West,276,4.0,5.0,94,0.00,,---,0.03,VWS V14.01,2013-07-04 11:19:00,
2013-07-04 07:24:00,61.1,59.4,30.01,West,271,6.0,6.0,94,0.00,,---,0.03,VWS V14.01,2013-07-04 11:24:00,
2013-07-04 07:29:00,61.2,59.5,30.01,West,263,5.0,6.0,94,0.00,,---,0.03,VWS V14.01,2013-07-04 11:29:00,
2013-07-04 07:35:00,61.2,59.5,30.01,West,263,2.0,4.0,94,0.00,,---,0.03,VWS V14.01,2013-07-04 11:35:00,
2013-07-04 07:40:00,61.2,59.5,30.01,West,263,4.0,5.0,94,0.00,,---,0.03,VWS V14.01,2013-07-04 11:40:00,
2013-07-04 07:45:00,61.2,59.5,30.01,WSW,241,2.0,3.0,94,0.00,,---,0.03,VWS V14.01,2013-07-04 11:45:00,
2013-07-04 07:50:00,61.2,59.5,30.01,WSW,242,4.0,4.0,94,0.00,,---,0.03,VWS V14.01,2013-07-04 11:50:00,
2013-07-04 07:55:00,61.3,59.6,30.02,WSW,242,4.0,4.0,94,0.00,,---,0.03,VWS V14.01,2013-07-04 11:55:00,
2013-07-04 08:00:00,61.4,59.7,30.02,WSW,242,4.0,4.0,94,0.00,,---,0.03,VWS V14.01,2013-07-04 12:00:00,
2013-07-04 08:05:00,61.4,60.0,30.02,WSW,257,4.0,4.0,95,0.00,,---,0.03,VWS V14.01,2013-07-04 12:05:00,
2013-07-04 08:10:00,61.4,60.0,30.02,WSW,254,8.0,8.0,95,0.00,,---,0.03,VWS V14.01,2013-07-04 12:10:00,
2013-07-04 08:15:00,61.4,59.7,30.02,WSW,248,6.0,6.0,94,0.00,,---,0.03,VWS V14.01,2013-07-04 12:15:00,
2013-07-04 08:20:00,61.3,59.6,30.02,WSW,250,5.0,5.0,94,0.00,,---,0.03,VWS V14.01,2013-07-04 12:20:00,
2013-07-04 08:25:00,61.3,59.6,30.02,WSW,247,4.0,4.0,94,0.00,,---,0.03,VWS V14.01,2013-07-04 12:25:00,
2013-07-04 08:31:00,61.4,60.0,30.02,WNW,287,6.0,9.0,95,0.00,,---,0.03,VWS V14.01,2013-07-04 12:31:00,
2013-07-04 08:36:00,61.6,60.2,30.03,WSW,242,0.0,2.0,95,0.00,,---,0.03,VWS V14.01,2013-07-04 12:36:00,
2013-07-04 08:41:00,61.8,60.4,30.03,WSW,240,5.0,5.0,95,0.00,,---,0.03,VWS V14.01,2013-07-04 12:41:00,
2013-07-04 08:46:00,61.7,60.3,30.03,West,262,4.0,4.0,95,0.00,,---,0.03,VWS V14.01,2013-07-04 12:46:00,
2013-07-04 08:51:00,61.9,60.5,30.03,West,266,4.0,9.0,95,0.00,,---,0.03,VWS V14.01,2013-07-04 12:51:00,
2013-07-04 08:56:00,61.9,60.5,30.03,WSW,240,6.0,9.0,95,0.00,,---,0.03,VWS V14.01,2013-07-04 12:56:00,
2013-07-04 09:01:00,62.1,60.7,30.03,SW,236,7.0,7.0,95,0.00,,---,0.03,VWS V14.01,2013-07-04 13:01:00,
2013-07-04 09:06:00,62.0,60.3,30.04,SW,235,5.0,9.0,94,0.00,,---,0.03,VWS V14.01,2013-07-04 13:06:00,
2013-07-04 09:11:00,62.1,60.7,30.04,SW,236,1.0,5.0,95,0.00,,---,0.03,VWS V14.01,2013-07-04 13:11:00,
2013-07-04 09:16:00,62.1,60.7,30.04,SW,233,3.0,3.0,95,0.00,,---,0.03,VWS V14.01,2013-07-04 13:16:00,
2013-07-04 09:21:00,62.2,60.8,30.04,WSW,252,3.0,4.0,95,0.00,,---,0.03,VWS V14.01,2013-07-04 13:21:00,
2013-07-04 09:26:00,62.3,60.6,30.04,SW,219,3.0,6.0,94,0.00,,---,0.03,VWS V14.01,2013-07-04 13:26:00,
2013-07-04 09:31:00,62.2,60.5,30.04,WSW,243,5.0,5.0,94,0.00,,---,0.03,VWS V14.01,2013-07-04 13:31:00,
2013-07-04 09:36:00,62.2,60.5,30.04,WSW,244,4.0,5.0,94,0.00,,---,0.03,VWS V14.01,2013-07-04 13:36:00,
2013-07-04 09:41:00,62.3,60.6,30.04,SW,225,5.0,5.0,94,0.00,,---,0.03,VWS V14.01,2013-07-04 13:41:00,
2013-07-04 09:46:00,62.3,60.6,30.04,SW,235,4.0,4.0,94,0.00,,---,0.03,VWS V14.01,2013-07-04 13:46:00,
2013-07-04 09:51:00,62.4,60.7,30.04,WSW,246,2.0,3.0,94,0.00,,---,0.03,VWS V14.01,2013-07-04 13:51:00,
2013-07-04 09:56:00,62.4,60.7,30.04,WSW,252,6.0,7.0,94,0.00,,---,0.03,VWS V14.01,2013-07-04 13:56:00,
2013-07-04 10:01:00,62.4,60.3,30.04,SW,228,5.0,5.0,93,0.00,,---,0.03,VWS V14.01,2013-07-04 14:01:00,
2013-07-04 10:06:00,62.5,60.5,30.04,WSW,249,5.0,5.0,93,0.00,,---,0.03,VWS V14.01,2013-07-04 14:06:00,
2013-07-04 10:11:00,62.6,60.5,30.04,SW,232,3.0,5.0,93,0.00,,---,0.03,VWS V14.01,2013-07-04 14:11:00,
2013-07-04 10:16:00,62.8,60.8,30.04,South,190,0.0,2.0,93,0.00,,---,0.03,VWS V14.01,2013-07-04 14:16:00,
2013-07-04 10:21:00,62.9,60.8,30.04,South,173,1.0,1.0,93,0.00,,---,0.03,VWS V14.01,2013-07-04 14:21:00,
2013-07-04 10:26:00,62.9,60.8,30.03,South,186,1.0,2.0,93,0.00,,---,0.03,VWS V14.01,2013-07-04 14:26:00,
2013-07-04 10:31:00,63.0,61.0,30.03,WSW,246,0.0,3.0,93,0.00,,---,0.03,VWS V14.01,2013-07-04 14:31:00,
2013-07-04 10:36:00,63.2,61.2,30.03,WSW,253,2.0,5.0,93,0.00,,---,0.03,VWS V14.01,2013-07-04 14:36:00,
2013-07-04 10:41:00,63.4,61.0,30.03,WSW,237,0.0,1.0,92,0.00,,---,0.03,VWS V14.01,2013-07-04 14:41:00,
2013-07-04 10:46:00,63.7,61.3,30.03,SSW,197,1.0,3.0,92,0.00,,---,0.03,VWS V14.01,2013-07-04 14:46:00,
2013-07-04 10:51:00,64.0,61.6,30.03,SW,218,3.0,3.0,92,0.00,,---,0.03,VWS V14.01,2013-07-04 14:51:00,
2013-07-04 10:56:00,64.4,62.0,30.03,WSW,252,1.0,4.0,92,0.00,,---,0.03,VWS V14.01,2013-07-04 14:56:00,
2013-07-04 11:01:00,64.9,62.2,30.03,SW,219,2.0,4.0,91,0.00,,---,0.03,VWS V14.01,2013-07-04 15:01:00,
2013-07-04 11:06:00,65.3,62.6,30.03,SW,226,2.0,3.0,91,0.00,,---,0.03,VWS V14.01,2013-07-04 15:06:00,
2013-07-04 11:11:00,65.6,62.6,30.03,SW,229,2.0,4.0,90,0.00,,---,0.03,VWS V14.01,2013-07-04 15:11:00,
2013-07-04 11:16:00,65.7,62.4,30.03,WSW,248,4.0,4.0,89,0.00,,---,0.03,VWS V14.01,2013-07-04 15:16:00,
2013-07-04 11:21:00,65.9,62.6,30.03,SW,225,3.0,3.0,89,0.00,,---,0.03,VWS V14.01,2013-07-04 15:21:00,
2013-07-04 11:26:00,66.1,62.8,30.03,SSW,192,0.0,3.0,89,0.00,,---,0.03,VWS V14.01,2013-07-04 15:26:00,
2013-07-04 11:31:00,66.3,62.6,30.03,South,183,0.0,4.0,88,0.00,,---,0.03,VWS V14.01,2013-07-04 15:31:00,
2013-07-04 11:36:00,66.7,63.0,30.03,SW,236,0.0,4.0,88,0.00,,---,0.03,VWS V14.01,2013-07-04 15:36:00,
2013-07-04 11:41:00,67.0,63.0,30.03,South,172,2.0,7.0,87,0.00,,---,0.03,VWS V14.01,2013-07-04 15:41:00,
2013-07-04 11:46:00,67.3,63.0,30.03,WSW,240,4.0,10.0,86,0.00,,---,0.03,VWS V14.01,2013-07-04 15:46:00,
2013-07-04 11:51:00,67.1,62.5,30.03,WSW,257,10.0,12.0,85,0.00,,---,0.03,VWS V14.01,2013-07-04 15:51:00,
2013-07-04 11:57:00,67.1,62.8,30.03,WSW,252,10.0,10.0,86,0.00,,---,0.03,VWS V14.01,2013-07-04 15:57:00,
2013-07-04 12:02:00,67.5,63.2,30.03,SSW,213,0.0,7.0,86,0.00,,---,0.03,VWS V14.01,2013-07-04 16:02:00,
2013-07-04 12:07:00,68.0,63.3,30.03,WSW,237,4.0,7.0,85,0.00,,---,0.03,VWS V14.01,2013-07-04 16:07:00,
2013-07-04 12:12:00,68.2,62.8,30.03,WSW,254,7.0,10.0,83,0.00,,---,0.03,VWS V14.01,2013-07-04 16:12:00,
2013-07-04 12:17:00,68.6,63.2,30.03,WSW,245,6.0,6.0,83,0.00,,---,0.03,VWS V14.01,2013-07-04 16:17:00,
2013-07-04 12:22:00,68.9,63.2,30.03,WSW,242,4.0,11.0,82,0.00,,---,0.03,VWS V14.01,2013-07-04 16:22:00,
2013-07-04 12:27:00,69.0,62.6,30.03,WSW,238,3.0,11.0,80,0.00,,---,0.03,VWS V14.01,2013-07-04 16:27:00,
2013-07-04 12:32:00,69.3,62.9,30.02,WSW,246,5.0,12.0,80,0.00,,---,0.03,VWS V14.01,2013-07-04 16:32:00,
2013-07-04 12:37:00,69.4,63.0,30.02,WSW,243,11.0,15.0,80,0.00,,---,0.03,VWS V14.01,2013-07-04 16:37:00,
2013-07-04 12:42:00,69.3,62.5,30.02,WSW,250,6.0,13.0,79,0.00,,---,0.03,VWS V14.01,2013-07-04 16:42:00,
2013-07-04 12:47:00,69.3,62.5,30.02,WSW,250,9.0,11.0,79,0.00,,---,0.03,VWS V14.01,2013-07-04 16:47:00,
2013-07-04 12:52:00,69.6,63.5,30.02,WSW,242,5.0,9.0,81,0.00,,---,0.03,VWS V14.01,2013-07-04 16:52:00,
2013-07-04 12:57:00,70.1,63.3,30.02,SW,219,5.0,10.0,79,0.00,,---,0.03,VWS V14.01,2013-07-04 16:57:00,
2013-07-04 13:02:00,70.7,63.9,30.02,WSW,244,2.0,7.0,79,0.00,,---,0.03,VWS V14.01,2013-07-04 17:02:00,
2013-07-04 13:07:00,71.5,63.9,30.01,SW,233,2.0,6.0,77,0.00,,---,0.03,VWS V14.01,2013-07-04 17:07:00,
2013-07-04 13:12:00,72.2,63.5,30.02,West,263,8.0,11.0,74,0.00,,---,0.03,VWS V14.01,2013-07-04 17:12:00,
2013-07-04 13:17:00,72.0,63.3,30.02,SSW,203,0.0,4.0,74,0.00,,---,0.03,VWS V14.01,2013-07-04 17:17:00,
2013-07-04 13:22:00,72.4,63.7,30.02,WSW,251,3.0,7.0,74,0.00,,---,0.03,VWS V14.01,2013-07-04 17:22:00,
2013-07-04 13:27:00,72.6,63.5,30.01,WSW,254,1.0,10.0,73,0.00,,---,0.03,VWS V14.01,2013-07-04 17:27:00,
2013-07-04 13:32:00,73.0,64.6,30.01,SSE,165,7.0,7.0,75,0.00,,---,0.03,VWS V14.01,2013-07-04 17:32:00,
2013-07-04 13:37:00,73.3,64.5,30.01,South,184,2.0,4.0,74,0.00,,---,0.03,VWS V14.01,2013-07-04 17:37:00,
2013-07-04 13:42:00,73.7,64.5,30.01,SSW,213,5.0,5.0,73,0.00,,---,0.03,VWS V14.01,2013-07-04 17:42:00,
2013-07-04 13:47:00,73.8,64.6,30.01,SW,232,5.0,12.0,73,0.00,,---,0.03,VWS V14.01,2013-07-04 17:47:00,
2013-07-04 13:52:00,73.7,64.1,30.01,South,184,4.0,6.0,72,0.00,,---,0.03,VWS V14.01,2013-07-04 17:52:00,
2013-07-04 13:57:00,74.3,65.1,30.00,SW,219,2.0,9.0,73,0.00,,---,0.03,VWS V14.01,2013-07-04 17:57:00,
2013-07-04 14:02:00,74.7,65.1,30.01,SSW,192,3.0,7.0,72,0.00,,---,0.03,VWS V14.01,2013-07-04 18:02:00,
2013-07-04 14:07:00,75.3,66.1,30.01,SSW,196,7.0,7.0,73,0.00,,---,0.03,VWS V14.01,2013-07-04 18:07:00,
2013-07-04 14:12:00,75.5,65.4,30.01,SW,227,5.0,11.0,71,0.00,,---,0.03,VWS V14.01,2013-07-04 18:12:00,
2013-07-04 14:17:00,75.8,64.5,30.01,South,171,4.0,12.0,68,0.00,,---,0.03,VWS V14.01,2013-07-04 18:17:00,
2013-07-04 14:22:00,76.1,65.2,30.01,SE,128,5.0,10.0,69,0.00,,---,0.03,VWS V14.01,2013-07-04 18:22:00,
2013-07-04 14:27:00,76.2,64.9,30.00,WSW,252,6.0,7.0,68,0.00,,---,0.03,VWS V14.01,2013-07-04 18:27:00,
2013-07-04 14:32:00,75.9,65.0,30.00,WSW,255,5.0,7.0,69,0.00,,---,0.03,VWS V14.01,2013-07-04 18:32:00,
2013-07-04 14:37:00,76.1,64.8,30.00,WSW,245,5.0,13.0,68,0.00,,---,0.03,VWS V14.01,2013-07-04 18:37:00,
2013-07-04 14:42:00,76.2,64.9,30.00,SW,235,4.0,11.0,68,0.00,,---,0.03,VWS V14.01,2013-07-04 18:42:00,
2013-07-04 14:47:00,76.6,64.8,30.00,SW,219,2.0,5.0,67,0.00,,---,0.03,VWS V14.01,2013-07-04 18:47:00,
2013-07-04 14:52:00,76.6,64.4,30.00,South,169,2.0,6.0,66,0.00,,---,0.03,VWS V14.01,2013-07-04 18:52:00,
2013-07-04 14:57:00,76.8,64.6,30.00,SSW,198,3.0,7.0,66,0.00,,---,0.03,VWS V14.01,2013-07-04 18:57:00,
2013-07-04 15:03:00,76.7,64.1,29.99,West,268,12.0,13.0,65,0.00,,---,0.03,VWS V14.01,2013-07-04 19:03:00,
2013-07-04 15:08:00,76.8,64.2,30.00,South,185,5.0,12.0,65,0.00,,---,0.03,VWS V14.01,2013-07-04 19:08:00,
2013-07-04 15:13:00,77.1,64.0,30.00,South,174,3.0,10.0,64,0.00,,---,0.03,VWS V14.01,2013-07-04 19:13:00,
2013-07-04 15:18:00,77.1,64.0,30.00,South,190,5.0,8.0,64,0.00,,---,0.03,VWS V14.01,2013-07-04 19:18:00,
2013-07-04 15:23:00,76.8,63.3,30.00,WSW,242,9.0,11.0,63,0.00,,---,0.03,VWS V14.01,2013-07-04 19:23:00,
2013-07-04 15:28:00,76.8,64.6,30.00,SW,228,4.0,6.0,66,0.00,,---,0.03,VWS V14.01,2013-07-04 19:28:00,
2013-07-04 15:33:00,77.3,64.2,30.00,SW,230,3.0,11.0,64,0.00,,---,0.03,VWS V14.01,2013-07-04 19:33:00,
2013-07-04 15:38:00,77.7,64.6,29.99,WSW,250,3.0,8.0,64,0.00,,---,0.03,VWS V14.01,2013-07-04 19:38:00,
2013-07-04 15:43:00,77.8,63.8,29.99,WSW,245,6.0,10.0,62,0.00,,---,0.03,VWS V14.01,2013-07-04 19:43:00,
2013-07-04 15:48:00,77.3,62.8,29.99,SW,236,4.0,18.0,61,0.00,,---,0.03,VWS V14.01,2013-07-04 19:48:00,
2013-07-04 15:53:00,76.9,63.4,29.99,SW,231,4.0,6.0,63,0.00,,---,0.03,VWS V14.01,2013-07-04 19:53:00,
2013-07-04 15:58:00,77.0,63.5,29.99,WSW,254,5.0,13.0,63,0.00,,---,0.03,VWS V14.01,2013-07-04 19:58:00,
2013-07-04 16:03:00,77.2,63.6,29.99,SW,216,2.0,6.0,63,0.00,,---,0.03,VWS V14.01,2013-07-04 20:03:00,
2013-07-04 16:08:00,77.3,63.7,29.99,WSW,244,7.0,9.0,63,0.00,,---,0.03,VWS V14.01,2013-07-04 20:08:00,
2013-07-04 16:13:00,77.2,64.1,29.99,WSW,253,6.0,6.0,64,0.00,,---,0.03,VWS V14.01,2013-07-04 20:13:00,
2013-07-04 16:18:00,77.6,63.6,29.98,WSW,241,4.0,6.0,62,0.00,,---,0.03,VWS V14.01,2013-07-04 20:18:00,
2013-07-04 16:23:00,77.8,63.3,29.98,SSW,205,6.0,7.0,61,0.00,,---,0.03,VWS V14.01,2013-07-04 20:23:00,
2013-07-04 16:28:00,77.8,63.3,29.98,West,260,9.0,11.0,61,0.00,,---,0.03,VWS V14.01,2013-07-04 20:28:00,
2013-07-04 16:33:00,77.6,63.6,29.98,SSE,163,4.0,6.0,62,0.00,,---,0.03,VWS V14.01,2013-07-04 20:33:00,
2013-07-04 16:38:00,77.8,62.8,29.98,SW,225,6.0,14.0,60,0.00,,---,0.03,VWS V14.01,2013-07-04 20:38:00,
2013-07-04 16:43:00,77.6,63.1,29.98,West,264,8.0,12.0,61,0.00,,---,0.03,VWS V14.01,2013-07-04 20:43:00,
2013-07-04 16:48:00,77.3,62.8,29.98,WSW,250,3.0,7.0,61,0.00,,---,0.03,VWS V14.01,2013-07-04 20:48:00,
2013-07-04 16:53:00,77.6,63.6,29.98,WSW,252,1.0,5.0,62,0.00,,---,0.03,VWS V14.01,2013-07-04 20:53:00,
2013-07-04 16:58:00,77.9,63.8,29.98,SSW,199,2.0,5.0,62,0.00,,---,0.03,VWS V14.01,2013-07-04 20:58:00,
2013-07-04 17:03:00,77.3,63.3,29.99,WSW,256,4.0,10.0,62,0.00,,---,0.03,VWS V14.01,2013-07-04 21:03:00,
2013-07-04 17:08:00,76.9,62.9,29.99,SSW,200,3.0,4.0,62,0.00,,---,0.03,VWS V14.01,2013-07-04 21:08:00,
2013-07-04 17:13:00,76.8,63.3,29.98,South,184,4.0,4.0,63,0.00,,---,0.03,VWS V14.01,2013-07-04 21:13:00,
2013-07-04 17:18:00,77.0,63.5,29.98,WSW,254,4.0,4.0,63,0.00,,---,0.03,VWS V14.01,2013-07-04 21:18:00,
2013-07-04 17:23:00,76.7,62.7,29.99,SW,227,0.0,11.0,62,0.00,,---,0.03,VWS V14.01,2013-07-04 21:23:00,
2013-07-04 17:28:00,76.4,62.9,29.99,WSW,254,4.0,10.0,63,0.00,,---,0.03,VWS V14.01,2013-07-04 21:28:00,
2013-07-04 17:33:00,76.0,63.0,29.99,WSW,252,9.0,9.0,64,0.00,,---,0.03,VWS V14.01,2013-07-04 21:33:00,
2013-07-04 17:38:00,75.5,62.9,29.99,West,268,9.0,9.0,65,0.00,,---,0.03,VWS V14.01,2013-07-04 21:38:00,
2013-07-04 17:43:00,74.9,64.1,29.99,WSW,250,12.0,13.0,69,0.00,,---,0.03,VWS V14.01,2013-07-04 21:43:00,
2013-07-04 17:48:00,73.6,63.2,29.99,WNW,286,11.0,15.0,70,0.00,,---,0.03,VWS V14.01,2013-07-04 21:48:00,
2013-07-04 17:53:00,73.1,63.5,29.99,WSW,254,14.0,15.0,72,0.00,,---,0.03,VWS V14.01,2013-07-04 21:53:00,
2013-07-04 17:58:00,72.7,63.2,29.99,WSW,257,10.0,14.0,72,0.00,,---,0.03,VWS V14.01,2013-07-04 21:58:00,
2013-07-04 18:03:00,72.6,63.5,29.99,WSW,248,9.0,11.0,73,0.00,,---,0.03,VWS V14.01,2013-07-04 22:03:00,
2013-07-04 18:08:00,72.4,63.3,29.99,West,279,12.0,13.0,73,0.00,,---,0.03,VWS V14.01,2013-07-04 22:08:00,
2013-07-04 18:13:00,72.1,63.4,29.99,WSW,248,10.0,14.0,74,0.00,,---,0.03,VWS V14.01,2013-07-04 22:13:00,
2013-07-04 18:18:00,72.0,63.3,29.99,WSW,254,8.0,11.0,74,0.00,,---,0.03,VWS V14.01,2013-07-04 22:18:00,
2013-07-04 18:23:00,72.0,63.3,29.99,WSW,254,13.0,13.0,74,0.00,,---,0.03,VWS V14.01,2013-07-04 22:23:00,
2013-07-04 18:28:00,71.9,62.8,29.99,West,260,9.0,14.0,73,0.00,,---,0.03,VWS V14.01,2013-07-04 22:28:00,
2013-07-04 18:33:00,71.7,62.2,29.99,WSW,248,7.0,14.0,72,0.00,,---,0.03,VWS V14.01,2013-07-04 22:33:00,
2013-07-04 18:38:00,71.7,62.2,30.00,WSW,250,6.0,12.0,72,0.00,,---,0.03,VWS V14.01,2013-07-04 22:38:00,
2013-07-04 18:43:00,72.0,62.1,30.00,WSW,255,9.0,11.0,71,0.00,,---,0.03,VWS V14.01,2013-07-04 22:43:00,
2013-07-04 18:48:00,72.6,62.7,29.99,WSW,258,5.0,9.0,71,0.00,,---,0.03,VWS V14.01,2013-07-04 22:48:00,
2013-07-04 18:53:00,72.9,62.1,29.99,WSW,258,7.0,11.0,69,0.00,,---,0.03,VWS V14.01,2013-07-04 22:53:00,
2013-07-04 18:58:00,72.6,61.9,29.99,WSW,256,7.0,11.0,69,0.00,,---,0.03,VWS V14.01,2013-07-04 22:58:00,
2013-07-04 19:03:00,72.6,61.9,29.99,WSW,237,4.0,7.0,69,0.00,,---,0.03,VWS V14.01,2013-07-04 23:03:00,
2013-07-04 19:08:00,72.5,61.8,29.99,West,275,7.0,10.0,69,0.00,,---,0.03,VWS V14.01,2013-07-04 23:08:00,
2013-07-04 19:13:00,72.4,62.1,29.99,WSW,252,5.0,7.0,70,0.00,,---,0.03,VWS V14.01,2013-07-04 23:13:00,
2013-07-04 19:18:00,72.4,61.7,29.99,WSW,243,2.0,9.0,69,0.00,,---,0.03,VWS V14.01,2013-07-04 23:18:00,
2013-07-04 19:24:00,72.7,62.0,29.99,WSW,256,5.0,9.0,69,0.00,,---,0.03,VWS V14.01,2013-07-04 23:24:00,
2013-07-04 19:28:00,73.0,61.8,29.99,WNW,286,6.0,7.0,68,0.00,,---,0.03,VWS V14.01,2013-07-04 23:28:00,
2013-07-04 19:34:00,72.7,61.5,29.98,WSW,252,4.0,10.0,68,0.00,,---,0.03,VWS V14.01,2013-07-04 23:34:00,
2013-07-04 19:39:00,72.5,61.3,29.98,West,276,5.0,7.0,68,0.00,,---,0.03,VWS V14.01,2013-07-04 23:39:00,
2013-07-04 19:44:00,72.6,61.0,29.98,WSW,242,6.0,11.0,67,0.00,,---,0.03,VWS V14.01,2013-07-04 23:44:00,
2013-07-04 19:49:00,72.8,61.2,29.98,WSW,244,4.0,8.0,67,0.00,,---,0.03,VWS V14.01,2013-07-04 23:49:00,
2013-07-04 19:54:00,73.0,61.0,29.98,West,265,7.0,12.0,66,0.00,,---,0.03,VWS V14.01,2013-07-04 23:54:00,
2013-07-04 19:59:00,72.8,61.2,29.98,WSW,254,6.0,10.0,67,0.00,,---,0.03,VWS V14.01,2013-07-04 23:59:00,
2013-07-04 20:04:00,72.8,61.2,29.98,WSW,249,4.0,7.0,67,0.00,,---,0.03,VWS V14.01,2013-07-05 00:04:00,
2013-07-04 20:09:00,73.1,61.5,29.98,WSW,251,4.0,5.0,67,0.00,,---,0.03,VWS V14.01,2013-07-05 00:09:00,
2013-07-04 20:14:00,73.5,61.9,29.98,WSW,251,3.0,3.0,67,0.00,,---,0.03,VWS V14.01,2013-07-05 00:14:00,
2013-07-04 20:19:00,73.5,61.5,29.98,WSW,242,1.0,5.0,66,0.00,,---,0.03,VWS V14.01,2013-07-05 00:19:00,
2013-07-04 20:24:00,73.6,61.5,29.97,WSW,240,0.0,2.0,66,0.00,,---,0.03,VWS V14.01,2013-07-05 00:24:00,
2013-07-04 20:29:00,73.6,61.5,29.97,SW,214,0.0,4.0,66,0.00,,---,0.03,VWS V14.01,2013-07-05 00:29:00,
2013-07-04 20:34:00,73.4,61.8,29.97,SW,215,0.0,0.0,67,0.00,,---,0.03,VWS V14.01,2013-07-05 00:34:00,
2013-07-04 20:39:00,73.2,61.6,29.97,SW,215,0.0,1.0,67,0.00,,---,0.03,VWS V14.01,2013-07-05 00:39:00,
2013-07-04 20:44:00,73.0,61.8,29.97,SW,215,2.0,2.0,68,0.00,,---,0.03,VWS V14.01,2013-07-05 00:44:00,
2013-07-04 20:49:00,72.6,61.4,29.97,WSW,255,4.0,6.0,68,0.00,,---,0.03,VWS V14.01,2013-07-05 00:49:00,
2013-07-04 20:54:00,72.4,61.2,29.97,West,259,3.0,4.0,68,0.00,,---,0.03,VWS V14.01,2013-07-05 00:54:00,
2013-07-04 20:59:00,72.3,61.6,29.98,WSW,253,3.0,4.0,69,0.00,,---,0.03,VWS V14.01,2013-07-05 00:59:00,
2013-07-04 21:04:00,72.2,61.5,29.98,WSW,244,0.0,4.0,69,0.00,,---,0.03,VWS V14.01,2013-07-05 01:04:00,
2013-07-04 21:09:00,72.1,61.4,29.98,WSW,244,0.0,1.0,69,0.00,,---,0.03,VWS V14.01,2013-07-05 01:09:00,
2013-07-04 21:14:00,71.8,61.5,29.98,WSW,244,0.0,0.0,70,0.00,,---,0.03,VWS V14.01,2013-07-05 01:14:00,
2013-07-04 21:19:00,71.3,61.4,29.98,WSW,244,0.0,2.0,71,0.00,,---,0.03,VWS V14.01,2013-07-05 01:19:00,
2013-07-04 21:24:00,71.0,61.1,29.98,WSW,244,0.0,1.0,71,0.00,,---,0.03,VWS V14.01,2013-07-05 01:24:00,
2013-07-04 21:29:00,70.6,60.8,29.98,WSW,238,3.0,5.0,71,0.00,,---,0.03,VWS V14.01,2013-07-05 01:29:00,
2013-07-04 21:34:00,70.2,60.8,29.98,West,260,3.0,5.0,72,0.00,,---,0.03,VWS V14.01,2013-07-05 01:34:00,
2013-07-04 21:39:00,69.9,60.5,29.98,West,259,3.0,5.0,72,0.00,,---,0.03,VWS V14.01,2013-07-05 01:39:00,
2013-07-04 21:44:00,69.7,60.7,29.98,WSW,250,4.0,4.0,73,0.00,,---,0.03,VWS V14.01,2013-07-05 01:44:00,
2013-07-04 21:49:00,69.5,60.5,29.99,WSW,253,1.0,3.0,73,0.00,,---,0.03,VWS V14.01,2013-07-05 01:49:00,
2013-07-04 21:54:00,69.3,60.3,29.99,WSW,252,3.0,5.0,73,0.00,,---,0.03,VWS V14.01,2013-07-05 01:54:00,
2013-07-04 21:59:00,69.2,60.2,29.99,WSW,250,4.0,4.0,73,0.00,,---,0.03,VWS V14.01,2013-07-05 01:59:00,
2013-07-04 22:04:00,69.0,60.4,29.98,West,259,2.0,5.0,74,0.00,,---,0.03,VWS V14.01,2013-07-05 02:04:00,
2013-07-04 22:09:00,68.8,60.2,29.98,WSW,258,0.0,4.0,74,0.00,,---,0.03,VWS V14.01,2013-07-05 02:09:00,
2013-07-04 22:14:00,68.4,59.8,29.99,SW,228,2.0,3.0,74,0.00,,---,0.03,VWS V14.01,2013-07-05 02:14:00,
2013-07-04 22:19:00,68.1,59.5,29.99,SW,225,0.0,3.0,74,0.00,,---,0.03,VWS V14.01,2013-07-05 02:19:00,
2013-07-04 22:25:00,67.9,59.7,29.99,SSW,211,1.0,4.0,75,0.00,,---,0.03,VWS V14.01,2013-07-05 02:25:00,
2013-07-04 22:30:00,67.8,59.6,29.99,WSW,242,0.0,3.0,75,0.00,,---,0.03,VWS V14.01,2013-07-05 02:30:00,
2013-07-04 22:35:00,67.7,59.5,29.99,WSW,245,1.0,3.0,75,0.00,,---,0.03,VWS V14.01,2013-07-05 02:35:00,
2013-07-04 22:40:00,67.6,59.4,29.99,WSW,248,0.0,4.0,75,0.00,,---,0.03,VWS V14.01,2013-07-05 02:40:00,
2013-07-04 22:45:00,67.4,59.2,30.00,SW,234,0.0,1.0,75,0.00,,---,0.03,VWS V14.01,2013-07-05 02:45:00,
2013-07-04 22:50:00,67.2,59.4,30.00,SW,215,0.0,3.0,76,0.00,,---,0.03,VWS V14.01,2013-07-05 02:50:00,
2013-07-04 22:55:00,67.0,59.2,30.00,South,179,0.0,1.0,76,0.00,,---,0.03,VWS V14.01,2013-07-05 02:55:00,
2013-07-04 23:00:00,66.7,59.3,30.00,South,188,0.0,0.0,77,0.00,,---,0.03,VWS V14.01,2013-07-05 03:00:00,
2013-07-04 23:05:00,66.5,59.4,30.00,SSW,200,0.0,1.0,78,0.00,,---,0.03,VWS V14.01,2013-07-05 03:05:00,
2013-07-04 23:10:00,66.3,59.6,30.00,South,175,1.0,2.0,79,0.00,,---,0.03,VWS V14.01,2013-07-05 03:10:00,
2013-07-04 23:15:00,66.1,59.4,30.00,South,177,1.0,2.0,79,0.00,,---,0.03,VWS V14.01,2013-07-05 03:15:00,
2013-07-04 23:20:00,65.9,59.6,30.00,South,179,0.0,3.0,80,0.00,,---,0.03,VWS V14.01,2013-07-05 03:20:00,
2013-07-04 23:25:00,65.8,59.5,30.00,South,179,0.0,2.0,80,0.00,,---,0.03,VWS V14.01,2013-07-05 03:25:00,
2013-07-04 23:30:00,65.8,59.8,30.00,South,178,0.0,3.0,81,0.00,,---,0.03,VWS V14.01,2013-07-05 03:30:00,
2013-07-04 23:35:00,65.8,59.8,30.00,South,173,0.0,4.0,81,0.00,,---,0.03,VWS V14.01,2013-07-05 03:35:00,
2013-07-04 23:40:00,65.8,59.8,30.00,South,178,2.0,2.0,81,0.00,,---,0.03,VWS V14.01,2013-07-05 03:40:00,
2013-07-04 23:45:00,65.6,59.6,30.00,South,177,2.0,4.0,81,0.00,,---,0.03,VWS V14.01,2013-07-05 03:45:00,
2013-07-04 23:50:00,65.5,60.2,29.99,South,176,1.0,3.0,83,0.00,,---,0.03,VWS V14.01,2013-07-05 03:50:00,
2013-07-04 23:55:00,65.3,59.3,30.00,South,174,1.0,3.0,81,0.00,,---,0.03,VWS V14.01,2013-07-05 03:55:00,